EW0910 Weather Reports


time (UTC)temp
C
wind
direction
speed
KPH
gust
KPH
rain 1hr
cm
rain 24hr
cm
rain mn
cm
humidity
%
barometer
mb
20260510174526 21 57 0.0 8.0 0.00 0.00 0.00 46 1019.5
20260510173022 20 48 0.0 11.3 0.00 0.00 0.00 45 1019.4
20260510171526 20 91 0.0 11.3 0.00 0.00 0.00 47 1019.2
20260510170018 20 76 1.6 14.5 0.00 0.00 0.00 45 1019.0
20260510164516 20 300 1.6 11.3 0.00 0.00 0.00 47 1018.5
20260510163016 20 26 3.2 12.9 0.00 0.00 0.00 46 1018.6
20260510161515 20 127 3.2 14.5 0.00 0.00 0.00 46 1018.8
20260510160016 20 234 1.6 12.9 0.00 0.00 0.00 47 1018.7
20260510154510 18 238 3.2 20.9 0.00 0.00 0.00 50 1018.5
20260510153006 17 19 3.2 22.5 0.00 0.00 0.00 54 1018.3
20260510151508 16 169 0.0 11.3 0.00 0.00 0.00 57 1018.0
20260510150003 16 238 1.6 19.3 0.00 0.00 0.00 58 1017.9
20260510144507 16 110 3.2 11.3 0.00 0.00 0.00 58 1017.6
20260510143001 16 238 3.2 17.7 0.00 0.00 0.00 60 1017.7
20260510141559 16 102 0.0 9.7 0.00 0.00 0.00 65 1017.8
20260510140058 15 148 0.0 8.0 0.00 0.00 0.00 67 1017.8
20260510134557 15 301 0.0 9.7 0.00 0.00 0.00 69 1017.9
20260510133055 15 136 0.0 8.0 0.00 0.00 0.00 70 1017.7
20260510131551 15 63 0.0 8.0 0.00 0.00 0.00 71 1017.0
20260510130049 16 182 0.0 8.0 0.00 0.00 0.00 71 1016.6
20260510124547 16 112 1.6 8.0 0.00 0.00 0.00 71 1016.1
20260510123045 16 104 1.6 9.7 0.00 0.00 0.00 71 1015.9
20260510121543 16 47 0.0 8.0 0.00 0.00 0.00 71 1015.7
20260510120039 15 88 1.6 14.5 0.00 0.00 0.00 72 1015.1
20260510114537 15 120 0.0 11.3 0.00 0.00 0.00 73 1014.5
20260510113040 15 65 0.0 9.7 0.00 0.00 0.00 74 1014.3
20260510111534 15 57 1.6 11.3 0.00 0.00 0.00 74 1013.9
20260510110048 15 18 1.6 9.7 0.00 0.00 0.00 74 1014.1
20260510104532 15 42 0.0 8.0 0.00 0.00 0.00 74 1013.9
20260510103031 16 49 0.0 8.0 0.00 0.00 0.00 73 1013.9
20260510101529 16 10 0.0 4.8 0.00 0.00 0.00 73 1013.6
20260510100034 16 70 0.0 8.0 0.00 0.00 0.00 74 1013.4
20260510094535 15 111 0.0 6.4 0.00 0.00 0.00 77 1013.2
20260510093026 14 126 0.0 3.2 0.00 0.00 0.00 79 1013.0
20260510091526 14 270 0.0 0.0 0.00 0.00 0.00 80 1012.8
20260510090019 15 270 0.0 0.0 0.00 0.03 0.00 78 1012.6
20260510084517 15 270 0.0 0.0 0.00 0.03 0.00 78 1012.1
20260510083018 15 270 0.0 1.6 0.00 0.03 0.00 78 1012.1
20260510081523 15 270 0.0 0.0 0.00 0.03 0.00 78 1012.0
20260510080032 15 270 0.0 0.0 0.00 0.03 0.00 78 1012.1
20260510074512 15 270 0.0 0.0 0.00 0.03 0.00 77 1012.3
20260510073012 15 270 0.0 0.0 0.00 0.03 0.00 76 1012.1
20260510071509 16 270 0.0 0.0 0.00 0.03 0.00 75 1012.3
20260510070005 16 270 0.0 0.0 0.00 0.03 0.00 73 1012.2
20260510064501 17 270 0.0 0.0 0.00 0.03 0.00 71 1012.2
20260510063001 17 270 0.0 1.6 0.00 0.03 0.00 69 1012.0
20260510061558 17 288 0.0 1.6 0.00 0.03 0.00 72 1011.7
20260510060053 17 292 0.0 0.0 0.00 0.03 0.00 69 1011.2
20260510054553 18 292 0.0 1.6 0.00 0.03 0.00 67 1010.9
20260510053054 18 115 0.0 1.6 0.00 0.03 0.00 66 1010.4
20260510051602 18 268 0.0 0.0 0.00 0.03 0.00 68 1011.1
20260510050055 18 268 0.0 1.6 0.00 0.03 0.03 68 1011.5
20260510044546 18 268 0.0 4.8 0.00 0.03 0.03 69 1012.0
20260510043047 18 268 0.0 4.8 0.00 0.03 0.03 71 1011.9
20260510041544 18 238 0.0 0.0 0.00 0.03 0.03 72 1011.9
20260510040042 18 238 0.0 0.0 0.00 0.03 0.03 69 1011.8
20260510034540 18 238 0.0 0.0 0.00 0.03 0.03 71 1011.4
20260510033052 18 238 0.0 0.0 0.00 0.03 0.03 71 1011.4
20260510031539 18 238 0.0 0.0 0.00 0.03 0.03 70 1011.1
20260510030034 17 238 0.0 0.0 0.00 0.03 0.03 72 1010.7
20260510024532 17 238 0.0 0.0 0.00 0.03 0.03 70 1010.6
20260510023032 17 238 0.0 0.0 0.00 0.03 0.03 71 1010.3
20260510021611 18 238 0.0 0.0 0.00 0.03 0.03 69 1010.1
20260510020032 18 238 0.0 0.0 0.00 0.03 0.03 68 1009.7
20260510014545 18 238 0.0 0.0 0.00 0.03 0.03 63 1009.3
20260510013032 20 238 0.0 0.0 0.00 0.03 0.03 60 1009.0
20260510011530 21 238 0.0 0.0 0.00 0.03 0.03 57 1008.7
20260510010037 23 238 0.0 0.0 0.00 0.03 0.03 48 1008.5
20260510004528 26 238 0.0 0.0 0.00 0.03 0.03 44 1008.4
20260510003028 27 238 0.0 0.0 0.00 0.03 0.03 44 1008.3
20260510001528 28 238 0.0 1.6 0.00 0.03 0.03 44 1008.2
20260510000028 28 238 0.0 6.4 0.00 0.03 0.03 42 1008.3
20260509234527 29 238 0.0 8.0 0.00 0.03 0.03 41 1008.2
20260509233032 30 238 0.0 1.6 0.00 0.03 0.03 36 1008.3
20260509231526 30 238 0.0 6.4 0.00 0.03 0.03 37 1008.2
20260509230035 30 238 0.0 4.8 0.00 0.03 0.03 39 1008.3
20260509224525 30 242 0.0 4.8 0.00 0.03 0.03 37 1008.3
20260509223023 30 242 0.0 8.0 0.00 0.03 0.03 38 1008.3
20260509221523 30 217 0.0 1.6 0.00 0.03 0.03 37 1008.3
20260509220021 31 215 0.0 4.8 0.00 0.03 0.03 38 1008.4
20260509214520 30 221 0.0 4.8 0.00 0.03 0.03 33 1008.5
20260509213021 30 221 0.0 6.4 0.00 0.03 0.03 35 1008.5
20260509211518 30 221 0.0 4.8 0.00 0.03 0.03 37 1008.6
20260509210015 30 278 0.0 9.7 0.00 0.03 0.03 38 1008.8
20260509204514 30 262 0.0 6.4 0.00 0.03 0.03 35 1009.1
20260509203022 30 220 0.0 3.2 0.00 0.03 0.03 37 1009.2
20260509201515 30 244 0.0 4.8 0.00 0.03 0.03 38 1009.3
20260509200009 30 223 0.0 8.0 0.00 0.03 0.03 36 1009.5
20260509194514 30 278 0.0 8.0 0.00 0.03 0.03 39 1009.7
20260509193018 30 275 1.6 9.7 0.00 0.03 0.03 39 1009.7
20260509191506 29 234 0.0 8.0 0.00 0.03 0.03 40 1009.8
20260509190006 29 222 0.0 8.0 0.00 0.03 0.03 42 1009.8
20260509184503 28 240 1.6 8.0 0.00 0.03 0.03 42 1009.8
20260509183002 28 219 0.0 9.7 0.00 0.03 0.03 41 1010.0
20260509181606 28 223 1.6 8.0 0.00 0.03 0.03 46 1010.2
20260509180116 28 279 1.6 8.0 0.00 0.03 0.03 43 1010.3